Location: Neu-Ulm
(48.3873°N, 10.0192°E)
Time: 20:06:57
(UTC+01:00)

ISS - Pass Details

Date: 12 January 2018
Orbit: 401 x 407 km, 51.6° (Epoch: 17 January)

Event Time Altitude Azimuth Distance (km) Brightness Sun altitude
Exits shadow 06:24:40 42° 255° (WSW) 589 -3.5 -16.6°
Maximum altitude 06:25:23 53° 209° (SSW) 504 -3.5 -16.5°
Drops below altitude 10° 06:28:35 10° 132° (SE) 1,461 0.0 -15.9°
Sets 06:30:41 0° 127° (SE) 2,319 1.3 -15.6°
